Date,TemperatureHighF,TemperatureAvgF,TemperatureLowF,DewpointHighF,DewpointAvgF,DewpointLowF,HumidityHigh,HumidityAvg,HumidityLow,PressureMaxIn,PressureMinIn,WindSpeedMaxMPH,WindSpeedAvgMPH,GustSpeedMaxMPH,PrecipitationSumIn
2013-1-1,54,47,43,45,42,40,88,82,71,29.53,29.46,11,0,11,0.00
2013-1-2,44,43,43,40,40,40,90,89,89,29.50,29.49,2,1,1,0.00
2013-1-3,48,45,43,45,43,41,99,93,88,29.68,29.66,10,5,10,0.00
2013-1-4,57,46,41,50,43,40,99,88,60,29.66,29.36,8,1,8,0.00
2013-1-5,56,46,44,45,41,39,91,84,62,29.36,29.17,10,1,10,0.00
2013-1-6,46,43,39,41,38,32,91,81,71,29.19,29.08,11,2,11,0.01
2013-1-7,40,36,33,36,33,29,99,90,75,29.35,29.12,10,2,10,0.24
2013-1-8,36,30,28,31,28,24,99,90,71,29.47,29.34,18,5,18,0.01
2013-1-9,33,31,29,29,27,24,92,83,70,29.55,29.44,13,2,13,0.02
2013-1-10,47,38,32,33,29,25,81,68,52,29.54,29.35,15,3,15,0.01
2013-1-11,49,46,43,46,38,31,94,75,63,29.36,29.17,13,3,15,0.28
2013-1-12,48,47,46,46,46,45,95,94,94,29.21,29.19,4,1,7,0.09
2013-1-15,52,52,51,40,38,38,61,59,59,29.50,29.45,8,3,8,0.00
2013-1-16,51,51,50,38,38,37,61,60,60,29.44,29.41,8,4,8,0.00
2013-1-17,52,52,52,50,50,50,93,93,93,29.12,29.12,14,9,0,0.04
2013-1-22,57,52,52,50,50,50,93,93,93,29.12,29.04,6,6,6,0.12
2013-1-23,57,57,57,50,50,50,78,78,78,29.06,29.06,10,10,10,0.00
2013-1-24,59,59,59,46,46,46,61,61,61,28.93,28.92,6,3,6,0.02
2013-1-25,63,55,48,50,47,45,97,78,60,28.98,28.87,10,3,15,0.15
2013-1-28,40,38,38,38,38,37,98,97,95,29.37,29.34,10,5,10,0.07
2013-1-29,39,38,37,38,37,36,98,95,92,29.44,29.36,10,2,10,0.02
2013-1-30,40,39,38,34,34,34,85,83,81,29.33,29.32,2,1,2,0.00
2013-1-31,49,41,37,42,38,33,97,87,72,29.33,29.15,7,2,11,0.26